TimeCST,TemperatureF,Dew PointF,Humidity,Sea Level PressureIn,VisibilityMPH,Wind Direction,Wind SpeedMPH,Gust SpeedMPH,PrecipitationIn,Events,Conditions,WindDirDegrees,DateUTC
12:56 AM,51.1,46.9,86,30.31,10.0,WSW,3.5,-,N/A,,Clear,240,2013-01-24 06:56:00
1:56 AM,51.1,46.9,86,30.30,10.0,WSW,4.6,-,N/A,,Clear,240,2013-01-24 07:56:00
2:56 AM,48.9,46.0,90,30.30,10.0,SW,4.6,-,N/A,,Clear,220,2013-01-24 08:56:00
3:56 AM,46.9,45.0,93,30.30,6.0,Calm,Calm,-,N/A,,Clear,0,2013-01-24 09:56:00
4:48 AM,46.4,44.6,93,30.31,3.0,Calm,Calm,-,N/A,,Scattered Clouds,0,2013-01-24 10:48:00
4:56 AM,44.1,43.0,96,30.31,3.0,Calm,Calm,-,N/A,,Scattered Clouds,0,2013-01-24 10:56:00
5:56 AM,43.0,41.0,93,30.32,4.0,Calm,Calm,-,N/A,,Scattered Clouds,0,2013-01-24 11:56:00
6:56 AM,41.0,39.0,93,30.33,7.0,Calm,Calm,-,N/A,Fog,Patches of Fog,0,2013-01-24 12:56:00
7:56 AM,51.1,48.9,92,30.34,7.0,Calm,Calm,-,N/A,,Scattered Clouds,0,2013-01-24 13:56:00
7:58 AM,51.1,48.9,92,30.34,7.0,Calm,Calm,-,N/A,,Scattered Clouds,0,2013-01-24 13:58:00
8:56 AM,59.0,52.0,78,30.34,10.0,WSW,5.8,-,N/A,,Scattered Clouds,250,2013-01-24 14:56:00
9:56 AM,64.0,51.1,63,30.35,10.0,West,9.2,-,N/A,,Scattered Clouds,260,2013-01-24 15:56:00
10:56 AM,66.9,52.0,59,30.34,10.0,WSW,8.1,-,N/A,,Scattered Clouds,250,2013-01-24 16:56:00
11:56 AM,70.0,53.1,55,30.31,10.0,West,8.1,17.3,N/A,,Mostly Cloudy,260,2013-01-24 17:56:00
12:56 PM,70.0,53.1,55,30.28,10.0,WNW,6.9,-,N/A,,Mostly Cloudy,300,2013-01-24 18:56:00
1:56 PM,69.1,52.0,54,30.25,10.0,WNW,3.5,-,N/A,,Mostly Cloudy,300,2013-01-24 19:56:00
2:56 PM,72.0,51.1,48,30.24,10.0,South,6.9,-,N/A,,Scattered Clouds,180,2013-01-24 20:56:00
3:56 PM,70.0,53.1,55,30.23,10.0,SSW,10.4,-,N/A,,Mostly Cloudy,200,2013-01-24 21:56:00
4:56 PM,64.9,53.1,65,30.24,10.0,SSW,9.2,-,N/A,,Mostly Cloudy,210,2013-01-24 22:56:00
5:56 PM,61.0,52.0,72,30.26,10.0,SW,6.9,-,N/A,,Scattered Clouds,220,2013-01-24 23:56:00
6:56 PM,61.0,52.0,72,30.28,10.0,SW,8.1,-,N/A,,Mostly Cloudy,220,2013-01-25 00:56:00
7:56 PM,60.1,52.0,75,30.28,10.0,SSW,8.1,-,N/A,,Mostly Cloudy,210,2013-01-25 01:56:00
8:56 PM,57.9,52.0,81,30.27,10.0,SSW,5.8,-,N/A,,Mostly Cloudy,200,2013-01-25 02:56:00
9:56 PM,57.9,52.0,81,30.29,10.0,SW,4.6,-,N/A,,Mostly Cloudy,230,2013-01-25 03:56:00
10:56 PM,57.2,51.8,82,30.27,8.0,SSW,6.9,-,N/A,,Overcast,200,2013-01-25 04:56:00